User: anonymous   Login
Location: Unspecified
(0.0000°N, 0.0000°E)
Time: 10:40:20
(UTC+00:00)
Language:

APRIZESAT 3 - Orbit

View from above orbital plane
View from above orbital plane
View from above satellite
View from above satellite

Ground track
Ground track

The orbit data is extracted from the following two-line orbital elements,

1 35686U 09041F   16150.52715025  .00000202  00000-0  28469-4 0  9999
2 35686  98.2446 128.6715 0073496 179.2805 180.8529 14.86865596370173
Epoch (UTC): 29 May 2016 12:39:05
Eccentricity: 0.0073496
inclination: 98.2446°
perigee height: 556 km
apogee height: 659 km
right ascension of ascending node: 128.6715°
argument of perigee: 179.2805°
revolutions per day: 14.86865596
mean anomaly at epoch: 180.8529°
orbit number at epoch: 37017

The dashed part of the orbit path shows where the satellite is in the earth's shadow,  

DLR